Tanana, AK

5:10 AM AKST on February 21, 2018 (GMT -0900)
Calhoun Memorial

Weather History for PATA - March, 2013

Change the Weather History Date:

Monday, March 4, 2013

  Actual Average Record
Temperature  
Mean Temperature 14 °F -  
Max Temperature 38 °F 13 °F 38 °F (2013)
Min Temperature -2 °F -11 °F -45 °F (1992)
Degree Days  
Heating Degree Days 50    
Moisture  
Dew Point -3 °F    
Average Humidity 59    
Maximum Humidity 83    
Minimum Humidity 19    
Precipitation  
Precipitation 0.00 in - - ()
Snow  
Snow 0.00 in - - ()
Snow Depth 13.00 in    
Sea Level Pressure  
Sea Level Pressure 30.44 in    
Wind  
Wind Speed 4 mph (ENE)    
Max Wind Speed 13 mph    
Max Gust Speed -    
Visibility 10 miles    
Events      
Averages and records for this station are not official NWS values.
T = Trace of Precipitation, MM = Missing Value Source: NWS Daily Summary

Daily Weather History Graph

Daily Weather History Graph

Search for Another Location

Airport or City:

Trip Planner

Search our weather history database for the weather conditions in past years. The results will help you decide how hot, cold, wet, or windy it might be!

Date:

Astronomy

Mar. 04, 2013 Rise Set
Actual Time 8:06 AM AKST 6:35 PM AKST
Civil Twilight 7:16 AM AKST 7:25 PM AKST
Nautical Twilight 6:19 AM AKST 8:22 PM AKST
Astronomical Twilight 5:18 AM AKST 9:23 PM AKST
Moon 4:22 AM AKST (3/4) 9:28 AM AKST (3/4)
Length of Visible Light 12h 08m
Length of Day
10h 29m
Waning Gibbous, 50% of the Moon is Illuminated
Mar 4
Waning Gibbous
Mar 4
Last Quarter
Mar 11
New
Mar 19
First Quarter
Mar 27
Full

Hourly Weather History & Observations

Time (AKST) Temp. Windchill Dew Point Humidity Pressure Visibility Wind Dir Wind Speed Gust Speed Precip Events Conditions
12:52 AM - - - N/A% 30.49 in 10.0 mi Calm Calm - N/A   Clear
1:52 AM - - - N/A% 30.49 in 10.0 mi Calm Calm - N/A   Clear
2:52 AM - - - N/A% 30.50 in 10.0 mi Calm Calm - N/A   Clear
3:52 AM - - - N/A% 30.50 in 10.0 mi Calm Calm - N/A   Clear
4:52 AM - - - N/A% 30.50 in 10.0 mi NE 5.8 mph - N/A   Clear
5:52 AM -2.0 °F -12.2 °F -7.1 °F 79% 30.53 in 10.0 mi NE 4.6 mph - N/A   Clear
6:52 AM -2.0 °F -13.9 °F -7.1 °F 79% 30.53 in 10.0 mi NNE 5.8 mph - N/A   Clear
7:52 AM -2.0 °F -10.1 °F -6.0 °F 83% 30.53 in 10.0 mi East 3.5 mph - N/A   Clear
8:52 AM -2.0 °F -10.1 °F -7.1 °F 79% 30.52 in 10.0 mi NE 3.5 mph - N/A   Partly Cloudy
9:52 AM 1.9 °F -5.6 °F -6.0 °F 69% 30.49 in 10.0 mi ENE 3.5 mph - N/A   Partly Cloudy
10:52 AM 4.1 °F -10.2 °F -4.9 °F 66% 30.47 in 10.0 mi NE 9.2 mph - N/A   Mostly Cloudy
11:52 AM 4.1 °F -6.7 °F -4.0 °F 69% 30.47 in 10.0 mi ENE 5.8 mph - N/A   Mostly Cloudy
12:52 PM 15.1 °F 3.3 °F -2.0 °F 47% 30.46 in 10.0 mi East 9.2 mph - N/A   Mostly Cloudy
1:52 PM 14.0 °F -0.2 °F -0.0 °F 54% 30.44 in 10.0 mi East 12.7 mph - N/A   Mostly Cloudy
2:52 PM 10.8 °F 1.2 °F -1.3 °F 58% 30.42 in 10.0 mi NE 5.8 mph - N/A   Scattered Clouds
3:52 PM 10.9 °F -0.8 °F -0.9 °F 59% 30.41 in 10.0 mi NE 8.1 mph - N/A   Mostly Cloudy
4:52 PM 16.3 °F 5.7 °F -0.9 °F 47% 30.39 in 10.0 mi ENE 8.1 mph - N/A   Mostly Cloudy
5:52 PM 15.3 °F 6.6 °F 0.7 °F 53% 30.40 in 10.0 mi ENE 5.8 mph - N/A   Mostly Cloudy
6:52 PM 31.3 °F 26.6 °F -0.9 °F 25% 30.39 in 10.0 mi ENE 4.6 mph - N/A   Mostly Cloudy
7:52 PM - - - N/A% 30.36 in 10.0 mi ENE 9.2 mph - N/A   Mostly Cloudy
8:52 PM 38.7 °F 36.3 °F -0.6 °F 19% 30.38 in 10.0 mi East 3.5 mph - N/A   Overcast
9:52 PM - - - N/A% 30.34 in 10.0 mi Calm Calm - N/A   Overcast
10:52 PM - - - N/A% 30.32 in 10.0 mi ENE 10.4 mph - N/A   Overcast
11:52 PM - - - N/A% 30.32 in 10.0 mi ENE 9.2 mph - N/A   Partly Cloudy